| time (UTC) | temp F | wind direction | speed knots | gust knots | rain 1hr in | rain 24hr in | rain mn in | humidity % | barometer mb |
| 20260506013108 | 51 | 0 | 0.0 | 1.7 | 0.00 | 0.10 | 0.10 | 52 | 1008.3 |
| 20260506011601 | 52 | 0 | 0.0 | 2.6 | 0.00 | 0.10 | 0.10 | 52 | 1008.0 |
| 20260506010119 | 52 | 0 | 0.0 | 1.7 | 0.00 | 0.10 | 0.10 | 47 | 1008.0 |
| 20260506004553 | 53 | 0 | 0.0 | 2.6 | 0.00 | 0.11 | 0.10 | 48 | 1007.7 |
| 20260506003107 | 53 | 0 | 0.0 | 0.9 | 0.00 | 0.11 | 0.10 | 51 | 1007.7 |
| 20260506001604 | 54 | 0 | 0.0 | 3.5 | 0.00 | 0.11 | 0.10 | 44 | 1007.6 |
| 20260506000058 | 54 | 0 | 0.0 | 2.6 | 0.00 | 0.11 | 0.10 | 44 | 1007.6 |
| 20260505234552 | 54 | 0 | 0.9 | 2.6 | 0.00 | 0.11 | 0.10 | 42 | 1007.6 |
| 20260505233107 | 55 | 360 | 0.9 | 3.5 | 0.00 | 0.11 | 0.10 | 41 | 1007.6 |
| 20260505231554 | 55 | 0 | 0.0 | 2.6 | 0.00 | 0.11 | 0.10 | 43 | 1007.6 |
| 20260505230056 | 55 | 0 | 0.0 | 2.6 | 0.00 | 0.11 | 0.10 | 42 | 1007.8 |
| 20260505224554 | 55 | 0 | 0.0 | 7.0 | 0.00 | 0.11 | 0.10 | 40 | 1007.9 |
| 20260505223052 | 55 | 360 | 0.9 | 5.2 | 0.00 | 0.11 | 0.10 | 41 | 1007.9 |
| 20260505221551 | 55 | 360 | 0.9 | 5.2 | 0.00 | 0.11 | 0.10 | 39 | 1008.0 |
| 20260505220055 | 55 | 360 | 0.9 | 5.2 | 0.00 | 0.11 | 0.10 | 39 | 1008.1 |
| 20260505214610 | 55 | 360 | 0.9 | 4.3 | 0.00 | 0.11 | 0.10 | 39 | 1008.2 |
| 20260505213057 | 56 | 360 | 0.9 | 7.8 | 0.00 | 0.11 | 0.10 | 40 | 1008.1 |
| 20260505211549 | 55 | 0 | 0.0 | 8.7 | 0.00 | 0.11 | 0.10 | 40 | 1008.2 |
| 20260505210054 | 55 | 360 | 0.0 | 4.3 | 0.00 | 0.11 | 0.10 | 41 | 1008.0 |
| 20260505204546 | 55 | 360 | 0.9 | 7.0 | 0.00 | 0.11 | 0.10 | 39 | 1008.2 |
| 20260505203052 | 55 | 360 | 0.9 | 5.2 | 0.00 | 0.11 | 0.10 | 40 | 1008.4 |
| 20260505201557 | 55 | 360 | 0.0 | 7.0 | 0.00 | 0.11 | 0.10 | 39 | 1008.6 |
| 20260505200057 | 55 | 360 | 0.9 | 7.0 | 0.00 | 0.11 | 0.10 | 39 | 1008.5 |
| 20260505194547 | 55 | 360 | 1.7 | 5.2 | 0.00 | 0.11 | 0.10 | 40 | 1008.5 |
| 20260505193053 | 56 | 360 | 1.7 | 7.0 | 0.00 | 0.11 | 0.10 | 44 | 1008.6 |
| 20260505191605 | 56 | 360 | 0.9 | 5.2 | 0.00 | 0.11 | 0.10 | 43 | 1008.7 |
| 20260505190057 | 56 | 360 | 0.0 | 3.5 | 0.00 | 0.11 | 0.10 | 43 | 1008.8 |
| 20260505184601 | 56 | 360 | 0.9 | 7.0 | 0.00 | 0.11 | 0.10 | 45 | 1008.8 |
| 20260505183112 | 56 | 360 | 0.9 | 5.2 | 0.00 | 0.11 | 0.10 | 43 | 1008.9 |
| 20260505181549 | 56 | 360 | 1.7 | 7.8 | 0.00 | 0.11 | 0.10 | 43 | 1008.6 |
| 20260505180051 | 57 | 360 | 1.7 | 8.7 | 0.00 | 0.11 | 0.10 | 41 | 1008.7 |
| 20260505174548 | 57 | 0 | 0.9 | 5.2 | 0.00 | 0.11 | 0.10 | 41 | 1008.3 |
| 20260505173053 | 56 | 360 | 0.9 | 5.2 | 0.00 | 0.11 | 0.10 | 43 | 1008.5 |
| 20260505171557 | 56 | 360 | 0.9 | 4.3 | 0.00 | 0.11 | 0.10 | 45 | 1008.5 |
| 20260505170054 | 57 | 360 | 0.9 | 5.2 | 0.00 | 0.11 | 0.10 | 46 | 1008.4 |
| 20260505164555 | 57 | 360 | 0.9 | 7.0 | 0.00 | 0.11 | 0.10 | 52 | 1008.1 |
| 20260505163056 | 56 | 360 | 0.9 | 5.2 | 0.00 | 0.11 | 0.10 | 59 | 1008.4 |
| 20260505161605 | 55 | 360 | 0.9 | 5.2 | 0.00 | 0.11 | 0.10 | 59 | 1008.4 |
| 20260505153059 | 52 | 360 | 1.7 | 7.8 | 0.00 | 0.11 | 0.10 | 63 | 1008.2 |
| 20260505151611 | 51 | 360 | 0.9 | 3.5 | 0.00 | 0.11 | 0.10 | 72 | 1008.0 |
| 20260505124551 | 45 | 5 | 0.0 | 1.7 | 0.05 | 0.06 | 0.05 | 83 | 1008.2 |
| 20260505123050 | 46 | 0 | 0.0 | 0.9 | 0.04 | 0.05 | 0.04 | 79 | 1008.0 |
| 20260505121556 | 47 | 360 | 0.0 | 2.6 | 0.02 | 0.03 | 0.02 | 73 | 1008.0 |
| 20260505120110 | 49 | 0 | 0.0 | 2.6 | 0.00 | 0.01 | 0.00 | 66 | 1008.5 |
| 20260505114553 | 50 | 5 | 0.0 | 2.6 | 0.00 | 0.01 | 0.00 | 59 | 1007.3 |
| 20260505113052 | 50 | 9 | 0.9 | 3.5 | 0.00 | 0.01 | 0.00 | 56 | 1007.1 |
| 20260505111559 | 51 | 9 | 0.0 | 3.5 | 0.00 | 0.01 | 0.00 | 58 | 1006.3 |
| 20260505101554 | 51 | 0 | 0.0 | 2.6 | 0.00 | 0.01 | 0.00 | 58 | 1005.3 |
| 20260505100054 | 52 | 0 | 0.9 | 3.5 | 0.00 | 0.01 | 0.00 | 57 | 1005.0 |
| 20260505094552 | 52 | 0 | 0.9 | 4.3 | 0.00 | 0.01 | 0.00 | 58 | 1005.2 |
| 20260505093054 | 53 | 9 | 0.0 | 2.6 | 0.00 | 0.01 | 0.00 | 60 | 1005.1 |
| 20260505091553 | 54 | 5 | 0.0 | 1.7 | 0.00 | 0.01 | 0.00 | 58 | 1005.2 |
| 20260505090052 | 55 | 9 | 0.0 | 2.6 | 0.00 | 0.01 | 0.00 | 54 | 1005.0 |
| 20260505084553 | 55 | 360 | 0.0 | 5.2 | 0.00 | 0.01 | 0.00 | 52 | 1004.4 |
| 20260505083051 | 55 | 360 | 0.9 | 3.5 | 0.00 | 0.01 | 0.00 | 52 | 1003.8 |
| 20260505081557 | 55 | 360 | 0.0 | 2.6 | 0.00 | 0.01 | 0.00 | 52 | 1003.4 |
| 20260505080052 | 55 | 0 | 0.0 | 8.7 | 0.00 | 0.01 | 0.00 | 53 | 1003.2 |
| 20260505074600 | 56 | 0 | 0.0 | 2.6 | 0.00 | 0.01 | 0.00 | 53 | 1002.8 |
| 20260505073102 | 56 | 0 | 0.0 | 4.3 | 0.00 | 0.01 | 0.00 | 51 | 1002.7 |
| 20260505071558 | 56 | 0 | 0.0 | 2.6 | 0.00 | 0.01 | 0.00 | 51 | 1002.3 |
| 20260505070049 | 57 | 0 | 0.0 | 1.7 | 0.00 | 0.01 | 0.00 | 51 | 1002.1 |
| 20260505064554 | 57 | 0 | 0.0 | 4.3 | 0.00 | 0.01 | 0.00 | 51 | 1002.0 |
| 20260505063050 | 57 | 360 | 0.0 | 4.3 | 0.00 | 0.01 | 0.00 | 51 | 1001.9 |
| 20260505061557 | 57 | 360 | 0.9 | 7.0 | 0.00 | 0.01 | 0.00 | 52 | 1001.7 |
| 20260505060059 | 57 | 0 | 0.9 | 7.0 | 0.00 | 0.01 | 0.00 | 54 | 1001.7 |
| 20260505054626 | 56 | 360 | 0.0 | 3.5 | 0.00 | 0.01 | 0.00 | 63 | 1001.7 |
| 20260505053101 | 57 | 0 | 0.0 | 2.6 | 0.00 | 0.01 | 0.00 | 65 | 1001.9 |
| 20260505051555 | 57 | 360 | 0.0 | 2.6 | 0.00 | 0.01 | 0.00 | 65 | 1001.5 |
| 20260505041559 | 59 | 0 | 0.0 | 1.7 | 0.00 | 0.01 | 0.01 | 79 | 1000.7 |
| 20260505040056 | 59 | 0 | 0.0 | 2.6 | 0.00 | 0.01 | 0.01 | 78 | 1000.4 |
| 20260505034556 | 59 | 360 | 0.9 | 3.5 | 0.00 | 0.01 | 0.01 | 79 | 1000.8 |
| 20260505033054 | 59 | 0 | 0.0 | 4.3 | 0.00 | 0.01 | 0.01 | 79 | 1000.7 |
| 20260505031606 | 59 | 360 | 0.0 | 3.5 | 0.00 | 0.01 | 0.01 | 80 | 1000.9 |
| 20260505030050 | 59 | 0 | 0.0 | 0.0 | 0.00 | 0.01 | 0.01 | 79 | 1000.3 |
| 20260505024550 | 60 | 0 | 0.0 | 0.9 | 0.00 | 0.01 | 0.01 | 78 | 1000.1 |
| 20260505023106 | 60 | 360 | 0.0 | 4.3 | 0.00 | 0.01 | 0.01 | 79 | 999.9 |
| 20260505021553 | 60 | 0 | 0.9 | 3.5 | 0.00 | 0.01 | 0.01 | 80 | 999.7 |
| 20260505020053 | 61 | 0 | 0.0 | 7.0 | 0.00 | 0.01 | 0.01 | 77 | 998.9 |
| 20260505014608 | 62 | 360 | 0.9 | 5.2 | 0.00 | 0.01 | 0.01 | 75 | 998.9 |